This is the latest recevied weather packets stored in our database for station/object KD4MBW. If no packets are shown the sender has not sent any weather packets the latest 10 day(s).
| Time | Temp. | Humidity | Pressure | Rain* | Wind** | Luminosity | Snow |
|---|---|---|---|---|---|---|---|
| 1778240400 | 20.56° C | 96% | 1015.4 hPa | 0 mm | - | 9 W/m² | - |
| 1778240098 | 20.56° C | 97% | 1015.1 hPa | 0 mm | - | 14 W/m² | - |
| 1778239795 | 20.56° C | 96% | 1015 hPa | 0 mm | - | 11 W/m² | - |
| 1778239491 | 20.56° C | 96% | 1014.9 hPa | 0 mm | - | 10 W/m² | - |
| 1778239188 | 20.56° C | 97% | 1014.8 hPa | 0 mm | - | 12 W/m² | - |
| 1778238885 | 20.56° C | 97% | 1014.9 hPa | 0 mm | - | 8 W/m² | - |
| 1778238582 | 20.56° C | 98% | 1014.8 hPa | 0 mm | - | 4 W/m² | - |
| 1778238280 | 20.56° C | 98% | 1014.8 hPa | 0 mm | - | 2 W/m² | - |
| 1778237979 | 20.56° C | 98% | 1014.6 hPa | 0 mm | - | 1 W/m² | - |
| 1778237676 | 20.56° C | 99% | 1014.6 hPa | 0 mm | - | 1 W/m² | - |
| 1778237373 | 20.56° C | 98% | 1014.5 hPa | 0 mm | - | 0 W/m² | - |
| 1778237071 | 20.56° C | 98% | 1014.4 hPa | 0 mm | - | 0 W/m² | - |
| 1778236767 | 20.56° C | 99% | 1014.4 hPa | 0 mm | - | 0 W/m² | - |
| 1778236465 | 20.56° C | 99% | 1014.5 hPa | 0 mm | - | 0 W/m² | - |
| 1778236161 | 21.11° C | 99% | 1014.4 hPa | 0 mm | - | 0 W/m² | - |
| 1778235860 | 20.56° C | 99% | 1014.4 hPa | 0 mm | - | 0 W/m² | - |
| 1778235557 | 20.56° C | 99% | 1014.2 hPa | 0 mm | - | 0 W/m² | - |
| 1778235254 | 21.11° C | 99% | 1014.2 hPa | 0 mm | - | 0 W/m² | - |
| 1778234951 | 21.11° C | 99% | 1014.2 hPa | 0 mm | - | 0 W/m² | - |
| 1778234650 | 21.11° C | 99% | 1014.2 hPa | 0 mm | - | 0 W/m² | - |
| 1778234345 | 21.11° C | 99% | 1014.3 hPa | 0 mm | - | 0 W/m² | - |
| 1778234044 | 21.11° C | 99% | 1014.3 hPa | 0 mm | - | 0 W/m² | - |
| 1778233740 | 21.11° C | 99% | 1014.2 hPa | 0 mm | - | 0 W/m² | - |
| 1778233437 | 21.11° C | 99% | 1013.9 hPa | 0 mm | - | 0 W/m² | - |
| 1778233134 | 21.11° C | 99% | 1014 hPa | 0 mm | - | 0 W/m² | - |
* Rain latest hour (hover to see other rain measurements)
** Current wind speed in m/s (hover to see current wind gust speed)